[[{"header":{"parameterUnit":"m.s-1","parameterCategory":2,"la1":30.2991,"la2":30.254,"lo1":-89.0895,"lo2":-89.0444,"dy":0.0017,"dx":0.0017,"nx":28,"ny":28,"refTime":"2025-09-03T21:00:00:Z","depth":"0","parameterNumber":2,"parameterNumberName":"U-component_of_CURRENTS"},"data":[0,0,0,0,0,0,0,0,0,0,0,0,0,0,0,0,0,0,0,0,0,0,0,0,0,0,0,0,0,0,0,0,0,0,0,0,0,0,0,0,0,0,0,0,0,0,0,0,0,0,0,0,0,0,0,0,0,0,0.2805,0.2805,0,0.2806,0.2806,0.2806,0.2828,0.2828,0.2828,0.2829,0.2864,0.2865,0.2865,0,0,0,0,0,0,0,0,0,0,0,0,0,0.2801,0.2801,0.2805,0.2805,0.2804,0.2806,0.2806,0.2806,0.2827,0.2828,0.2829,0.2829,0.2864,0.2865,0.2865,0,0,0,0,0,0,0,0,0,0,0,0,0,0.2803,0.2801,0.2805,0.2815,0.2816,0.2806,0.2806,0.2806,0.2827,0.2828,0.2829,0.2829,0.2864,0.2865,0.2865,0.2856,0,0,0.2868,0.2868,0,0,0,0,0,0,0,0,0.2803,0.2803,0.2813,0.2814,0.2815,0.2816,0.2817,0.2824,0.2827,0.2824,0.2829,0.283,0.285,0.2852,0.2852,0.2857,0.2859,0.2868,0.2868,0.2869,0.2869,0,0,0,0,0,0,0,0.2803,0.2803,0.2806,0.2813,0.2814,0.2812,0.2814,0.2819,0.2834,0.2824,0.2825,0.2824,0.2851,0.2851,0.2853,0.2859,0.2868,0.2868,0.2869,0.2869,0.2963,0.2964,0,0,0,0,0,0,0.2801,0.2803,0.2806,0.2806,0.281,0.2812,0.2813,0.2816,0.2834,0.2836,0.2823,0.2825,0.2849,0.2852,0.2854,0.2942,0.2869,0.2869,0.287,0.2961,0.2963,0.2965,0,0,0,0,0,0,0.2801,0.2801,0.2806,0.2804,0.2804,0.2811,0.2814,0.2816,0.2821,0.2832,0.2836,0.2827,0.285,0.2853,0.2878,0.2939,0.287,0.287,0.2958,0.2961,0.2964,0.3054,0,0,0,0,0,0,0.2801,0.2802,0.2799,0.2804,0.2804,0.2815,0.2813,0.2815,0.2818,0.282,0.2837,0.2841,0.2851,0.2877,0.2879,0.2939,0.2871,0.2956,0.296,0.2963,0.3048,0.306,0.3069,0,0,0,0,0,0.2801,0.2794,0.2799,0.2799,0.2802,0.2815,0.2816,0.2823,0.2817,0.2828,0.2843,0.284,0.2904,0.2878,0.288,0.2943,0.2954,0.2958,0.2963,0.3044,0.3057,0.3069,0,0,0,0,0,0,0.2783,0.2796,0.2801,0.2797,0.2813,0.2819,0.2819,0.2822,0.2838,0.2841,0.2849,0.2855,0.2913,0.2902,0.2874,0.2981,0.2935,0.294,0.2996,0.3009,0.3019,0.2992,0.2871,0,0,0,0,0,0.2779,0.2785,0.2798,0.2797,0.2803,0.281,0.2813,0.2824,0.2837,0.2844,0.286,0.2885,0.2931,0.2946,0.2976,0.3011,0.2992,0.3057,0.3068,0.3076,0.3056,0.3106,0.3119,0.298,0.298,0.298,0,0,0.2768,0.2778,0.2779,0.2795,0.2802,0.2823,0.2815,0.2827,0.286,0.2845,0.2891,0.292,0.2949,0.3014,0.3038,0.3011,0.3105,0.3082,0.309,0.3064,0.3113,0.3126,0.3138,0.2983,0.2983,0.2982,0,0,0.276,0.2764,0.2771,0.2788,0.2809,0.2825,0.2831,0.2851,0.2879,0.2916,0.2942,0.2991,0.3031,0.3081,0.3108,0.3182,0.3164,0.3208,0.3233,0.3284,0.3296,0.3305,0.3288,0.3295,0.3207,0.3208,0.3208,0,0.2744,0.2761,0.2775,0.2792,0.2804,0.2829,0.2847,0.2884,0.2917,0.2946,0.2943,0.3041,0.3068,0.3162,0.3199,0.3209,0.3206,0.3187,0.3297,0.3307,0.3315,0.3295,0.3302,0.3213,0.3212,0.3211,0.3211,0,0.2748,0.2764,0.277,0.2808,0.2828,0.2846,0.2898,0.2938,0.2969,0.3005,0.3095,0.3136,0.3188,0.3231,0.3236,0.3331,0.3299,0.3312,0.3263,0.3335,0.3308,0.3314,0.322,0.3218,0.3216,0.3215,0,0,0.2696,0.2761,0.276,0.2786,0.2837,0.2853,0.2926,0.2994,0.3039,0.3101,0.3161,0.326,0.3275,0.3304,0.334,0.3382,0.3446,0.3369,0.337,0.3344,0.3513,0.3316,0.3302,0.3491,0.3493,0.3494,0.3465,0,0.2693,0.2737,0.2767,0.2809,0.2837,0.2887,0.2946,0.3016,0.3081,0.3151,0.323,0.3298,0.3312,0.3343,0.3397,0.3438,0.3468,0.3449,0.345,0.3448,0.3262,0.3305,0.3133,0.3078,0.347,0.3471,0.3472,0,0.2681,0.2719,0.276,0.2826,0.2838,0.2866,0.2955,0.3012,0.3129,0.3178,0.3263,0.3318,0.3405,0.3403,0.3489,0.3478,0.3494,0.3512,0.3513,0.3293,0.3262,0.3073,0.3073,0.2998,0.348,0.3479,0.3479,0,0.2647,0.2707,0.2743,0.2762,0.2843,0.287,0.2912,0.3014,0.3073,0.3192,0.3237,0.3347,0.3393,0.3455,0.3488,0.3501,0.3549,0.3577,0.3408,0.3393,0.3221,0.3185,0.3136,0.3631,0.3631,0.3631,0.3631,0,0.2633,0.2657,0.2728,0.2744,0.2788,0.284,0.2894,0.2965,0.306,0.312,0.3237,0.3296,0.3413,0.3461,0.3491,0.3434,0.3553,0.3391,0.3377,0.3242,0.3211,0.3114,0.3111,0.363,0.363,0.363,0.363,0,0.2598,0.2642,0.2683,0.2754,0.2775,0.2801,0.2873,0.2916,0.3006,0.3088,0.3124,0.3264,0.3293,0.3362,0.3436,0.3398,0.3268,0.3349,0.3136,0.3093,0.2811,0.2818,0.2586,0.2529,0.3137,0.3132,0.3127,0,0.2587,0.261,0.2677,0.2694,0.2722,0.2766,0.2799,0.2888,0.293,0.3055,0.3087,0.3153,0.3165,0.3159,0.311,0.3065,0.3072,0.2883,0.287,0.2739,0.2743,0.2656,0.2624,0.2689,0.2682,0.2676,0.2671,0,0.2572,0.2592,0.2626,0.2657,0.2683,0.2713,0.2757,0.2779,0.2872,0.2923,0.2958,0.2969,0.2935,0.2789,0.2713,0.2696,0.2692,0.2748,0.2713,0.244,0.2248,0.2204,0.2734,0.2616,0.2622,0.2626,0.2629,0.2631,0.2547,0.2559,0.2588,0.26,0.2627,0.2615,0.2591,0.263,0.2645,0.2639,0.2748,0.2658,0.2573,0.241,0.2368,0.2164,0.2251,0.21,0.2137,0.2071,0.195,0.2293,0.2096,0.2098,0.21,0.2102,0.2103,0,0.2491,0.2502,0.2524,0.251,0.248,0.2524,0.2524,0.2458,0.2397,0.2402,0.2368,0.2194,0.2014,0.1947,0.1739,0.1609,0.1581,0.1572,0.1487,0.1508,0.1901,0.1816,0.1426,0.1426,0.1426,0.1426,0.1426,0.1427,0.2464,0.2442,0.2436,0.2346,0.2331,0.2226,0.2188,0.2116,0.2072,0.1895,0.1757,0.1723,0.1674,0.1473,0.1291,0.1266,0.1217,0.1041,0.1147,0.1504,0.1559,0.1612,0.1533,0.1089,0.1089,0.0664,0.066,0.0658]},{"header":{"parameterUnit":"m.s-1","parameterCategory":2,"la1":30.2991,"la2":30.254,"lo1":-89.0895,"lo2":-89.0444,"dy":0.0017,"dx":0.0017,"nx":28,"ny":28,"refTime":"2025-09-03T21:00:00:Z","depth":"0","parameterNumber":3,"parameterNumberName":"V-component_of_CURRENTS"},"data":[0,0,0,0,0,0,0,0,0,0,0,0,0,0,0,0,0,0,0,0,0,0,0,0,0,0,0,0,0,0,0,0,0,0,0,0,0,0,0,0,0,0,0,0,0,0,0,0,0,0,0,0,0,0,0,0,0,0,0.0395,0.0395,0,0.0376,0.0376,0.0375,0.0368,0.0368,0.0368,0.0369,0.033,0.0329,0.0327,0,0,0,0,0,0,0,0,0,0,0,0,0,0.0358,0.0359,0.0395,0.0395,0.0395,0.0376,0.0376,0.0375,0.0368,0.0368,0.0368,0.0369,0.033,0.0329,0.0327,0,0,0,0,0,0,0,0,0,0,0,0,0,0.0358,0.036,0.0395,0.039,0.039,0.0376,0.0376,0.0375,0.0368,0.0368,0.0369,0.0369,0.0331,0.0329,0.0327,0.0307,0,0,0.0321,0.032,0,0,0,0,0,0,0,0,0.0358,0.0359,0.0391,0.0391,0.039,0.0377,0.0349,0.0352,0.0368,0.0374,0.0369,0.0369,0.0345,0.0342,0.0334,0.0306,0.0304,0.0321,0.032,0.0319,0.0318,0,0,0,0,0,0,0,0.0359,0.036,0.0385,0.0391,0.0391,0.0367,0.0368,0.0349,0.0355,0.0373,0.0373,0.0375,0.0344,0.0336,0.0333,0.0303,0.0321,0.0319,0.0318,0.0317,0.0288,0.0288,0,0,0,0,0,0,0.0369,0.036,0.0386,0.0385,0.0378,0.0368,0.0369,0.0379,0.0356,0.0354,0.0374,0.0375,0.0339,0.0336,0.0332,0.035,0.0319,0.0317,0.0316,0.0287,0.0288,0.0288,0,0,0,0,0,0,0.0368,0.0371,0.0386,0.0373,0.0374,0.0369,0.038,0.0378,0.0375,0.0357,0.0354,0.0373,0.034,0.0335,0.0321,0.0347,0.0316,0.0315,0.0287,0.0287,0.0288,0.0359,0,0,0,0,0,0,0.0367,0.0372,0.0378,0.0374,0.0375,0.0385,0.038,0.0378,0.0376,0.0376,0.0355,0.0352,0.0339,0.0324,0.0319,0.0344,0.0313,0.0286,0.0287,0.0288,0.0356,0.0362,0.0367,0,0,0,0,0,0.0366,0.0378,0.0378,0.0381,0.0386,0.0385,0.0383,0.0379,0.0376,0.0376,0.0362,0.0353,0.0325,0.0322,0.0317,0.0342,0.0286,0.0287,0.0288,0.0354,0.0361,0.0367,0,0,0,0,0,0,0.0367,0.0378,0.0379,0.0394,0.0392,0.0385,0.0386,0.038,0.0369,0.0371,0.035,0.0346,0.0347,0.0326,0.0323,0.0333,0.0307,0.0306,0.0359,0.0365,0.037,0.0404,0.0312,0,0,0,0,0,0.037,0.0383,0.0385,0.0397,0.0398,0.039,0.0388,0.0388,0.038,0.0376,0.036,0.0347,0.0344,0.034,0.0328,0.0325,0.0324,0.0338,0.0343,0.0348,0.037,0.0393,0.0403,0.0291,0.0291,0.0291,0,0,0.0374,0.0382,0.039,0.0398,0.0396,0.0408,0.039,0.0395,0.0411,0.0372,0.038,0.0362,0.0346,0.0353,0.0352,0.034,0.0374,0.0349,0.0354,0.0373,0.0395,0.0406,0.0416,0.0291,0.0291,0.0291,0,0,0.0393,0.0396,0.0414,0.0416,0.0421,0.042,0.0423,0.0418,0.0421,0.042,0.0408,0.0409,0.0382,0.0393,0.0393,0.0417,0.0401,0.0403,0.046,0.0482,0.0492,0.0501,0.0498,0.0506,0.0407,0.0407,0.0407,0,0.0394,0.0425,0.0416,0.0433,0.0444,0.0429,0.0453,0.0453,0.0445,0.046,0.0432,0.0435,0.0413,0.0454,0.046,0.0434,0.043,0.044,0.0492,0.0501,0.0509,0.0504,0.0512,0.0411,0.0411,0.041,0.041,0,0.0429,0.0451,0.0461,0.0484,0.049,0.0507,0.0512,0.052,0.0515,0.0521,0.0546,0.052,0.0531,0.0518,0.0494,0.0546,0.0517,0.0497,0.0483,0.0525,0.0516,0.0523,0.0416,0.0415,0.0414,0.0413,0,0,0.0439,0.0479,0.0483,0.051,0.0523,0.0536,0.0566,0.0598,0.0637,0.0621,0.0674,0.0659,0.065,0.0649,0.0625,0.0635,0.0672,0.0591,0.059,0.0601,0.0704,0.0658,0.0661,0.0661,0.0663,0.0664,0.0669,0,0.0471,0.0523,0.0532,0.0584,0.0613,0.0617,0.065,0.0677,0.0691,0.0732,0.0731,0.0759,0.07,0.0711,0.0717,0.069,0.0697,0.0672,0.0651,0.065,0.0616,0.0671,0.0674,0.0677,0.0676,0.0677,0.0678,0,0.0505,0.054,0.0598,0.0656,0.0668,0.0693,0.0757,0.0786,0.0839,0.0853,0.0885,0.0879,0.0907,0.0843,0.0839,0.0823,0.0775,0.0742,0.0741,0.0685,0.0619,0.0636,0.069,0.0688,0.0689,0.0689,0.0688,0,0.0532,0.0589,0.0642,0.0658,0.0714,0.0745,0.0774,0.0825,0.0875,0.0938,0.0981,0.1002,0.1023,0.0984,0.0904,0.088,0.0885,0.0844,0.0758,0.0753,0.0747,0.0738,0.0813,0.0848,0.0848,0.0848,0.0848,0,0.0572,0.0614,0.066,0.069,0.0763,0.0781,0.0861,0.0898,0.0969,0.1049,0.1048,0.1113,0.106,0.1049,0.0961,0.0887,0.0932,0.0791,0.0766,0.0767,0.076,0.0748,0.0723,0.0848,0.0848,0.0848,0.0848,0,0.0604,0.063,0.0696,0.0757,0.078,0.0833,0.0915,0.098,0.1031,0.1139,0.1167,0.1214,0.1201,0.1122,0.1061,0.0965,0.0877,0.0844,0.0833,0.0808,0.0717,0.0694,0.0723,0.0724,0.077,0.0769,0.0768,0,0.0631,0.0668,0.0743,0.0789,0.082,0.0892,0.0951,0.1012,0.1087,0.1201,0.1268,0.1291,0.132,0.1209,0.1053,0.0911,0.0869,0.0803,0.076,0.0739,0.0696,0.0687,0.0685,0.0773,0.0772,0.0771,0.0771,0,0.0686,0.0705,0.0758,0.0846,0.0913,0.0992,0.1077,0.1143,0.1228,0.1318,0.1427,0.1457,0.1358,0.124,0.1034,0.0922,0.0809,0.0786,0.079,0.0737,0.071,0.0689,0.0721,0.0766,0.0767,0.0767,0.0767,0.0767,0.0721,0.0766,0.0827,0.0909,0.0987,0.1079,0.1147,0.1246,0.1363,0.1486,0.1518,0.1557,0.1399,0.1132,0.1001,0.0777,0.0772,0.0705,0.0687,0.0686,0.0677,0.0683,0.0678,0.0678,0.0678,0.0678,0.0678,0,0.0764,0.0809,0.0889,0.0981,0.1061,0.1097,0.1224,0.1295,0.1428,0.1528,0.1605,0.1535,0.1353,0.1144,0.085,0.072,0.0683,0.0653,0.0672,0.068,0.0718,0.0709,0.0681,0.0681,0.0681,0.0681,0.0681,0.0681,0.0788,0.0856,0.0888,0.1013,0.1082,0.1184,0.1251,0.1367,0.1455,0.1551,0.1559,0.1567,0.145,0.1023,0.0784,0.0713,0.0678,0.0616,0.0614,0.0662,0.0666,0.0671,0.0662,0.0623,0.0623,0.061,0.0609,0.0609]}],[{"header":{"parameterUnit":"m.s-1","parameterCategory":2,"la1":30.2991,"la2":30.254,"lo1":-89.0895,"lo2":-89.0444,"dy":0.0017,"dx":0.0017,"nx":28,"ny":28,"refTime":"2025-09-03T21:00:00:Z","depth":"2","parameterNumber":2,"parameterNumberName":"U-component_of_CURRENTS"},"data":[0,0,0,0,0,0,0,0,0,0,0,0,0,0,0,0,0,0,0,0,0,0,0,0,0,0,0,0,0,0,0,0,0,0,0,0,0,0,0,0,0,0,0,0,0,0,0,0,0,0,0,0,0,0,0,0,0,0,0.2144,0.2145,0,0.2147,0.2147,0.2147,0.2106,0.2105,0.2104,0.2104,0.2123,0.2124,0.2125,0,0,0,0,0,0,0,0,0,0,0,0,0,0.2159,0.2158,0.2144,0.2145,0.2145,0.2147,0.2147,0.2147,0.2106,0.2105,0.2104,0.2103,0.2123,0.2124,0.2125,0,0,0,0,0,0,0,0,0,0,0,0,0,0.2152,0.2158,0.2144,0.2128,0.2127,0.2147,0.2147,0.2146,0.2106,0.2105,0.2104,0.2103,0.2122,0.2124,0.2126,0.2157,0,0,0.2131,0.2132,0,0,0,0,0,0,0,0,0.2152,0.2151,0.213,0.213,0.2129,0.2129,0.216,0.2152,0.2106,0.2109,0.2104,0.2103,0.2131,0.2131,0.2127,0.2158,0.2159,0.2131,0.2132,0.2133,0.2133,0,0,0,0,0,0,0,0.2153,0.2151,0.2141,0.2131,0.213,0.2141,0.2138,0.2158,0.2122,0.2109,0.2107,0.2115,0.2129,0.2126,0.2128,0.2159,0.2131,0.2133,0.2134,0.2134,0.2251,0.2253,0,0,0,0,0,0,0.216,0.2151,0.2141,0.2141,0.2143,0.2142,0.2138,0.2126,0.2122,0.2121,0.2116,0.2114,0.2123,0.2126,0.2128,0.2213,0.2133,0.2134,0.2135,0.2249,0.2252,0.2254,0,0,0,0,0,0,0.216,0.2158,0.2141,0.2151,0.215,0.2143,0.213,0.2127,0.2129,0.2128,0.2126,0.2122,0.2123,0.2126,0.216,0.2212,0.2135,0.2137,0.2247,0.225,0.2253,0.2352,0,0,0,0,0,0,0.216,0.2157,0.2158,0.2151,0.215,0.215,0.2131,0.2128,0.2138,0.2134,0.2133,0.2133,0.2122,0.2158,0.2162,0.2213,0.2138,0.2244,0.2248,0.2252,0.2346,0.2358,0.2368,0,0,0,0,0,0.216,0.2157,0.2157,0.2157,0.2148,0.2151,0.215,0.2139,0.2139,0.2138,0.2151,0.2133,0.2185,0.2161,0.2165,0.2218,0.2242,0.2247,0.2252,0.2341,0.2356,0.2368,0,0,0,0,0,0,0.2157,0.2153,0.2153,0.2147,0.2152,0.2145,0.2155,0.2151,0.216,0.2167,0.2159,0.2161,0.2204,0.2201,0.2174,0.2262,0.2212,0.2218,0.2279,0.2292,0.2303,0.2276,0.214,0,0,0,0,0,0.2162,0.216,0.216,0.2158,0.2166,0.2167,0.2172,0.2167,0.2175,0.2176,0.2183,0.2201,0.2228,0.225,0.2257,0.2316,0.2299,0.2352,0.2364,0.2373,0.2354,0.2415,0.243,0.2269,0.2269,0.2269,0,0,0.2161,0.2162,0.2159,0.216,0.2167,0.2176,0.2165,0.2179,0.2198,0.2182,0.2218,0.2232,0.2246,0.23,0.2323,0.2308,0.2406,0.2379,0.2387,0.2362,0.2421,0.2437,0.2451,0.2272,0.2272,0.2271,0,0,0.2157,0.2163,0.2161,0.2175,0.2195,0.2196,0.2204,0.2214,0.223,0.2271,0.2269,0.2314,0.2351,0.2376,0.2395,0.2475,0.2451,0.2489,0.2543,0.2604,0.2617,0.2629,0.261,0.2619,0.2512,0.2512,0.2512,0,0.2159,0.2158,0.2163,0.2176,0.2199,0.2207,0.2223,0.2242,0.2264,0.2287,0.2291,0.2369,0.2385,0.2461,0.2491,0.2501,0.2504,0.2494,0.2619,0.263,0.264,0.2618,0.2626,0.2517,0.2517,0.2516,0.2516,0,0.2164,0.2169,0.2178,0.2195,0.2214,0.2237,0.2267,0.2295,0.2327,0.2342,0.242,0.2462,0.2506,0.254,0.2542,0.2636,0.26,0.2615,0.2584,0.2663,0.2633,0.2641,0.2525,0.2523,0.2521,0.252,0,0,0.2138,0.2174,0.2171,0.2192,0.2237,0.2245,0.23,0.2339,0.2377,0.2428,0.2489,0.2566,0.2588,0.261,0.2646,0.2709,0.2788,0.2702,0.2703,0.2678,0.2874,0.2707,0.2698,0.2843,0.2845,0.2847,0.2817,0,0.2142,0.2155,0.2185,0.2213,0.223,0.2281,0.2325,0.2367,0.2421,0.2478,0.2551,0.2607,0.2621,0.2667,0.2738,0.2769,0.2816,0.279,0.2803,0.2801,0.2642,0.2705,0.2509,0.2454,0.2824,0.2825,0.2826,0,0.2135,0.2145,0.2175,0.2227,0.2242,0.2273,0.2354,0.2399,0.2482,0.2528,0.2608,0.2645,0.2736,0.275,0.2844,0.2833,0.2853,0.2875,0.2876,0.2683,0.2649,0.244,0.2453,0.2837,0.2836,0.2836,0.2835,0,0.21,0.2138,0.2164,0.2188,0.2249,0.2293,0.2332,0.2411,0.2464,0.2562,0.2607,0.2702,0.2761,0.2827,0.2866,0.287,0.2949,0.296,0.2816,0.2802,0.2611,0.2575,0.3023,0.3023,0.3023,0.3023,0.3024,0,0.2097,0.2104,0.2155,0.2172,0.2211,0.2276,0.2349,0.2395,0.2496,0.2541,0.2634,0.2689,0.2793,0.2847,0.2878,0.2848,0.296,0.2806,0.2795,0.2635,0.2604,0.2919,0.2907,0.3022,0.3022,0.3023,0.3023,0,0.2058,0.2085,0.212,0.2186,0.2199,0.2238,0.2336,0.2388,0.2482,0.2555,0.2585,0.2689,0.2723,0.2789,0.2868,0.2832,0.2841,0.2807,0.2562,0.252,0.2638,0.2632,0.2619,0.2613,0.2608,0.2604,0.26,0,0.2036,0.2058,0.2115,0.2133,0.217,0.2232,0.2268,0.2364,0.2417,0.2536,0.2556,0.262,0.2614,0.2638,0.2601,0.257,0.2712,0.2363,0.2328,0.2612,0.2603,0.2605,0.2606,0.2113,0.2106,0.21,0.2095,0,0.2014,0.2052,0.2078,0.2094,0.2134,0.2174,0.2231,0.2261,0.2366,0.2404,0.2431,0.2433,0.2428,0.2282,0.2237,0.2215,0.2345,0.2234,0.2647,0.2231,0.2129,0.2122,0.2142,0.2043,0.2048,0.2052,0.2055,0.2057,0.1999,0.2013,0.2038,0.205,0.2086,0.2088,0.2074,0.2116,0.2127,0.2126,0.2221,0.2135,0.2133,0.1918,0.1849,0.1801,0.1966,0.19,0.1922,0.195,0.1882,0.1776,0.1607,0.1609,0.1611,0.1613,0.1615,0,0.1962,0.1964,0.1979,0.1972,0.1966,0.2007,0.2016,0.1959,0.1888,0.1904,0.1867,0.1664,0.1527,0.1548,0.1369,0.1329,0.137,0.1289,0.1349,0.14,0.1446,0.1357,0.094,0.0938,0.0936,0.0935,0,0,0.1937,0.1901,0.1892,0.1828,0.1841,0.1762,0.1741,0.1647,0.1606,0.1481,0.1409,0.1464,0.1493,0.1204,0.1151,0.1017,0.1214,0.0975,0.1518,0.1641,0.1685,0.1796,0.1715,0,0,0,0,0]},{"header":{"parameterUnit":"m.s-1","parameterCategory":2,"la1":30.2991,"la2":30.254,"lo1":-89.0895,"lo2":-89.0444,"dy":0.0017,"dx":0.0017,"nx":28,"ny":28,"refTime":"2025-09-03T21:00:00:Z","depth":"2","parameterNumber":3,"parameterNumberName":"V-component_of_CURRENTS"},"data":[0,0,0,0,0,0,0,0,0,0,0,0,0,0,0,0,0,0,0,0,0,0,0,0,0,0,0,0,0,0,0,0,0,0,0,0,0,0,0,0,0,0,0,0,0,0,0,0,0,0,0,0,0,0,0,0,0,0,0.0168,0.0168,0,0.0158,0.0158,0.0157,0.0136,0.0136,0.0136,0.0136,0.0094,0.0094,0.0093,0,0,0,0,0,0,0,0,0,0,0,0,0,0.014,0.014,0.0168,0.0168,0.0168,0.0158,0.0158,0.0157,0.0136,0.0136,0.0136,0.0136,0.0095,0.0094,0.0092,0,0,0,0,0,0,0,0,0,0,0,0,0,0.014,0.014,0.0168,0.0159,0.0159,0.0158,0.0158,0.0157,0.0137,0.0136,0.0136,0.0136,0.0095,0.0094,0.0092,0.0086,0,0,0.0088,0.0087,0,0,0,0,0,0,0,0,0.014,0.0141,0.016,0.016,0.0159,0.0151,0.0133,0.0133,0.0137,0.0141,0.0136,0.0136,0.0113,0.011,0.0104,0.0084,0.0082,0.0087,0.0087,0.0086,0.0085,0,0,0,0,0,0,0,0.014,0.0141,0.0161,0.0161,0.016,0.0146,0.0146,0.0132,0.0125,0.0141,0.014,0.0145,0.0112,0.0106,0.0103,0.0082,0.0088,0.0086,0.0085,0.0085,0.0055,0.0055,0,0,0,0,0,0,0.015,0.0141,0.0161,0.0161,0.0153,0.0147,0.0147,0.0151,0.0126,0.0123,0.0145,0.0144,0.0108,0.0105,0.0101,0.0113,0.0086,0.0085,0.0084,0.0055,0.0055,0.0055,0,0,0,0,0,0,0.0149,0.0152,0.0161,0.0153,0.0154,0.0149,0.0153,0.0151,0.0148,0.013,0.0125,0.0145,0.0108,0.0103,0.0092,0.011,0.0084,0.0082,0.0054,0.0055,0.0055,0.0123,0,0,0,0,0,0,0.0149,0.0152,0.0156,0.0154,0.0155,0.0165,0.0154,0.0151,0.0153,0.0151,0.0128,0.0124,0.0107,0.0095,0.0091,0.0108,0.0081,0.0054,0.0055,0.0055,0.012,0.0125,0.0129,0,0,0,0,0,0.0148,0.0157,0.0156,0.0159,0.0162,0.0165,0.0164,0.0157,0.0153,0.0152,0.0138,0.0125,0.0093,0.0094,0.0089,0.0106,0.0054,0.0055,0.0055,0.0118,0.0124,0.0129,0,0,0,0,0,0,0.0149,0.0156,0.0155,0.0166,0.0168,0.0163,0.0166,0.0161,0.0149,0.015,0.0127,0.0121,0.0117,0.0098,0.0099,0.0095,0.0071,0.0071,0.0121,0.0127,0.0131,0.0157,0.008,0,0,0,0,0,0.0152,0.0161,0.0163,0.0174,0.0176,0.0171,0.0172,0.017,0.0162,0.0157,0.014,0.0124,0.0114,0.011,0.0092,0.0093,0.0086,0.0098,0.0103,0.0107,0.0124,0.0136,0.0144,0.0056,0.0056,0.0056,0,0,0.0157,0.0162,0.0168,0.0174,0.0175,0.0186,0.017,0.0178,0.0189,0.0155,0.0157,0.0137,0.0115,0.0115,0.0112,0.0104,0.0124,0.0107,0.0112,0.0126,0.0138,0.0146,0.0154,0.0056,0.0056,0.0056,0,0,0.0175,0.0175,0.0189,0.0194,0.0202,0.0199,0.0204,0.0201,0.02,0.02,0.0181,0.0178,0.0151,0.0151,0.0145,0.0164,0.0144,0.0148,0.0201,0.0212,0.0221,0.0228,0.0217,0.0223,0.0156,0.0156,0.0156,0,0.018,0.0202,0.0193,0.021,0.0223,0.0209,0.023,0.0227,0.022,0.023,0.0208,0.0199,0.0176,0.0198,0.0201,0.0179,0.0171,0.0186,0.0222,0.0228,0.0235,0.0222,0.0228,0.0159,0.0159,0.0158,0.0158,0,0.0211,0.0228,0.0239,0.0256,0.0262,0.028,0.028,0.0285,0.0279,0.028,0.0293,0.0268,0.0271,0.0256,0.0234,0.0268,0.0241,0.0224,0.0215,0.0248,0.0232,0.0237,0.0164,0.0163,0.0162,0.0161,0,0,0.0224,0.0255,0.0259,0.0283,0.0293,0.0306,0.0325,0.0345,0.0374,0.0357,0.0398,0.0375,0.0368,0.0362,0.0338,0.0344,0.0369,0.0306,0.0305,0.0309,0.0381,0.0352,0.0354,0.0359,0.0361,0.0362,0.0347,0,0.0254,0.0299,0.0304,0.0349,0.0375,0.0375,0.0399,0.0414,0.042,0.0449,0.044,0.0454,0.0407,0.0414,0.0418,0.0383,0.0386,0.0373,0.0336,0.0335,0.0318,0.036,0.0368,0.0355,0.0352,0.0352,0.0353,0,0.0285,0.0315,0.0365,0.0414,0.0426,0.0446,0.0494,0.0517,0.0547,0.0555,0.0575,0.0556,0.0569,0.0521,0.0502,0.0494,0.0448,0.0413,0.0412,0.0371,0.0317,0.0323,0.0364,0.036,0.036,0.0359,0.0359,0,0.031,0.0359,0.0404,0.042,0.0466,0.0493,0.0518,0.0552,0.0592,0.0628,0.066,0.0659,0.0672,0.0627,0.0551,0.0529,0.0522,0.0482,0.0412,0.0408,0.0401,0.0395,0.0474,0.0474,0.0474,0.0474,0.0474,0,0.0347,0.0383,0.0421,0.0449,0.0514,0.0532,0.0604,0.0627,0.0684,0.075,0.0724,0.0771,0.0699,0.0679,0.0596,0.0528,0.056,0.0437,0.0415,0.0421,0.0416,0.0409,0.0402,0.0473,0.0474,0.0474,0.0474,0,0.0374,0.0395,0.0454,0.0508,0.0529,0.0578,0.0659,0.0718,0.0755,0.0845,0.0859,0.0866,0.0834,0.0749,0.0676,0.0592,0.0518,0.048,0.0479,0.0457,0.0378,0.0374,0.0405,0.0404,0.0403,0.0403,0.0402,0,0.0394,0.0426,0.0494,0.0537,0.0565,0.0638,0.0696,0.0751,0.0817,0.0905,0.0957,0.0947,0.0945,0.0825,0.0687,0.055,0.0523,0.045,0.041,0.0403,0.0378,0.0375,0.0372,0.0418,0.0417,0.0417,0.0417,0,0.0437,0.0456,0.0505,0.0584,0.0649,0.0731,0.0815,0.0876,0.0956,0.1018,0.1092,0.1091,0.0988,0.0858,0.0667,0.0567,0.0472,0.0438,0.0461,0.043,0.0413,0.0388,0.0386,0.0414,0.0415,0.0415,0.0415,0.0415,0.0466,0.0505,0.0561,0.064,0.0715,0.081,0.0879,0.0965,0.1062,0.1148,0.1163,0.1152,0.1023,0.0769,0.0618,0.0452,0.046,0.0378,0.038,0.0382,0.0382,0.0365,0.0356,0.0356,0.0356,0.0356,0.0356,0,0.0503,0.0546,0.0616,0.0706,0.0786,0.0824,0.0949,0.1006,0.1105,0.1176,0.1212,0.1062,0.0926,0.0769,0.0532,0.0385,0.037,0.032,0.0343,0.0347,0.035,0.0349,0.0314,0.0313,0.0313,0.0312,0,0,0.0524,0.0584,0.0616,0.074,0.0812,0.0912,0.0982,0.1058,0.1116,0.1154,0.115,0.1139,0.0969,0.0778,0.0598,0.0461,0.0428,0.042,0.047,0.0525,0.0529,0.0403,0.0409,0,0,0,0,0]}],[{"header":{"parameterUnit":"m.s-1","parameterCategory":2,"la1":30.2991,"la2":30.254,"lo1":-89.0895,"lo2":-89.0444,"dy":0.0017,"dx":0.0017,"nx":28,"ny":28,"refTime":"2025-09-03T21:00:00:Z","depth":"4","parameterNumber":2,"parameterNumberName":"U-component_of_CURRENTS"},"data":[0,0,0,0,0,0,0,0,0,0,0,0,0,0,0,0,0,0,0,0,0,0,0,0,0,0,0,0,0,0,0,0,0,0,0,0,0,0,0,0,0,0,0,0,0,0,0,0,0,0,0,0,0,0,0,0,0,0,0.1045,0.1045,0,0.1071,0.1071,0.1071,0.107,0.107,0.107,0.107,0.1068,0.1068,0.1068,0,0,0,0,0,0,0,0,0,0,0,0,0,0.1035,0.1035,0.1045,0.1045,0.1046,0.1071,0.1071,0.1071,0.107,0.107,0.107,0.107,0.1068,0.1068,0.1068,0,0,0,0,0,0,0,0,0,0,0,0,0,0.1045,0.1035,0.1045,0.1051,0.1052,0.1071,0.1071,0.1071,0.107,0.107,0.107,0.107,0.1068,0.1068,0.1068,0.107,0,0,0.1068,0.1068,0,0,0,0,0,0,0,0,0.1044,0.1045,0.105,0.1051,0.1052,0.107,0.1067,0.107,0.107,0.106,0.107,0.107,0.1068,0.1068,0.1069,0.107,0.107,0.1068,0.1068,0.1068,0.1068,0,0,0,0,0,0,0,0.1043,0.1044,0.1052,0.105,0.1052,0.1067,0.1067,0.1068,0.1061,0.1061,0.1062,0.107,0.1068,0.1069,0.1069,0.107,0.1068,0.1068,0.1068,0.1068,0.1081,0.1081,0,0,0,0,0,0,0.1045,0.1043,0.1051,0.1053,0.1052,0.1067,0.1068,0.1062,0.1062,0.1063,0.107,0.107,0.1069,0.1069,0.1069,0.1101,0.1068,0.1068,0.1068,0.108,0.1081,0.1081,0,0,0,0,0,0,0.1044,0.1045,0.105,0.1052,0.1054,0.1067,0.1061,0.1062,0.1085,0.107,0.1069,0.1094,0.1069,0.1069,0.1082,0.11,0.1068,0.1068,0.108,0.1081,0.1081,0.1145,0,0,0,0,0,0,0.1044,0.1044,0.1057,0.1052,0.1054,0.1062,0.1061,0.1063,0.109,0.1091,0.109,0.1088,0.1069,0.1082,0.1082,0.1099,0.1068,0.108,0.108,0.1081,0.1143,0.1148,0.1152,0,0,0,0,0,0.1043,0.105,0.1057,0.106,0.1066,0.1063,0.1065,0.1073,0.1092,0.1095,0.1102,0.1089,0.1085,0.1083,0.1083,0.11,0.1079,0.108,0.1081,0.1141,0.1147,0.1152,0,0,0,0,0,0,0.1047,0.105,0.1059,0.1065,0.1069,0.1064,0.108,0.1091,0.1101,0.1113,0.1101,0.1099,0.1117,0.1098,0.1096,0.1102,0.1078,0.1078,0.1123,0.1129,0.1134,0.1159,0.1068,0,0,0,0,0,0.1057,0.1064,0.1066,0.1072,0.108,0.109,0.11,0.1104,0.1108,0.1114,0.1118,0.1118,0.1116,0.1116,0.111,0.112,0.1128,0.1126,0.1131,0.1136,0.1155,0.1191,0.1201,0.1084,0.1084,0.1084,0,0,0.1061,0.1065,0.107,0.1075,0.1084,0.1084,0.1095,0.1111,0.1113,0.1113,0.1131,0.1143,0.1124,0.1132,0.1137,0.1121,0.117,0.1136,0.1141,0.1158,0.1193,0.1205,0.1215,0.1084,0.1084,0.1084,0,0,0.106,0.1077,0.1082,0.1085,0.1103,0.1103,0.1115,0.1127,0.1138,0.115,0.1159,0.1191,0.1172,0.118,0.1174,0.1204,0.1199,0.1193,0.1236,0.1271,0.1282,0.1291,0.1308,0.1318,0.1189,0.119,0.119,0,0.1076,0.107,0.1083,0.1084,0.1097,0.1113,0.112,0.1121,0.1138,0.1164,0.1156,0.1196,0.1194,0.1221,0.1235,0.1219,0.1232,0.1218,0.1281,0.129,0.1299,0.1314,0.1325,0.1193,0.1192,0.1192,0.1192,0,0.1062,0.1071,0.1075,0.1079,0.1093,0.1101,0.1109,0.1131,0.1155,0.1171,0.122,0.123,0.126,0.126,0.1258,0.1322,0.1309,0.129,0.1273,0.1316,0.1327,0.1337,0.1197,0.1196,0.1195,0.1194,0,0,0.1064,0.1069,0.1074,0.1079,0.1098,0.1101,0.1119,0.1147,0.1174,0.1202,0.1248,0.1279,0.1326,0.1326,0.1341,0.1377,0.1456,0.1371,0.1372,0.1401,0.153,0.1401,0.1399,0.1455,0.1457,0.1459,0.151,0,0.1058,0.1057,0.1068,0.1074,0.1077,0.1107,0.112,0.1153,0.1181,0.1224,0.1273,0.1316,0.1332,0.1369,0.1413,0.1452,0.1488,0.1443,0.1473,0.1474,0.1366,0.1409,0.1466,0.1517,0.152,0.1522,0.1523,0,0.104,0.1045,0.1054,0.1078,0.1088,0.1102,0.1153,0.1169,0.1232,0.1261,0.1332,0.1366,0.1456,0.1444,0.1545,0.152,0.1542,0.1557,0.1558,0.1428,0.1365,0.1466,0.1541,0.154,0.1539,0.1537,0.1536,0,0.1021,0.1037,0.1049,0.1053,0.1079,0.1113,0.1147,0.1203,0.1237,0.1313,0.1352,0.1437,0.15,0.1548,0.1596,0.1586,0.1678,0.1654,0.1553,0.1544,0.1618,0.1607,0.1718,0.1718,0.1718,0.1718,0.1718,0,0.0996,0.1005,0.1046,0.1046,0.108,0.1119,0.1168,0.1208,0.1284,0.1326,0.1397,0.1435,0.1537,0.159,0.1616,0.1616,0.1696,0.1577,0.1555,0.1639,0.163,0.1625,0.1613,0.172,0.172,0.1719,0.1719,0,0.0953,0.0979,0.0991,0.1041,0.1065,0.1098,0.1184,0.1209,0.1296,0.1353,0.139,0.148,0.1543,0.16,0.1675,0.1633,0.1642,0.1615,0.1702,0.1682,0.148,0.1472,0.1515,0.1511,0.1508,0.1505,0.1502,0,0.0922,0.0925,0.0981,0.0996,0.1024,0.1082,0.1113,0.1209,0.1235,0.1355,0.137,0.1472,0.1511,0.1519,0.1581,0.16,0.158,0.1568,0.1533,0.1489,0.1464,0.146,0.1456,0.1497,0.1496,0.1495,0.1495,0,0.0865,0.0898,0.0908,0.0947,0.0987,0.101,0.1072,0.1092,0.1191,0.1284,0.1324,0.1356,0.1411,0.1452,0.1473,0.1481,0.1568,0.1533,0.154,0.1506,0.1468,0.1445,0.1445,0.1483,0.1485,0.1486,0.1486,0,0.0832,0.0826,0.0856,0.0883,0.0922,0.0924,0.0967,0.1004,0.106,0.1196,0.1205,0.13,0.1398,0.1389,0.1406,0.1405,0.1387,0.1339,0.1356,0.1369,0.1294,0.1222,0.1157,0,0,0,0,0,0.0802,0.0781,0.0788,0.0805,0.0836,0.0867,0.092,0.0963,0.1069,0.1067,0.1139,0.1178,0.1215,0.1262,0.1233,0.1327,0.1382,0.1285,0.1333,0.1418,0.1432,0.1355,0,0,0,0,0,0,0.0775,0.0777,0.0762,0.0738,0.0736,0.0763,0.0798,0.0866,0.0869,0.0985,0.1015,0.1103,0.1158,0.1231,0.1215,0.1227,0.1229,0.1349,0.1345,0.1411,0.1423,0.1434,0.1359,0,0,0,0,0]},{"header":{"parameterUnit":"m.s-1","parameterCategory":2,"la1":30.2991,"la2":30.254,"lo1":-89.0895,"lo2":-89.0444,"dy":0.0017,"dx":0.0017,"nx":28,"ny":28,"refTime":"2025-09-03T21:00:00:Z","depth":"4","parameterNumber":3,"parameterNumberName":"V-component_of_CURRENTS"},"data":[0,0,0,0,0,0,0,0,0,0,0,0,0,0,0,0,0,0,0,0,0,0,0,0,0,0,0,0,0,0,0,0,0,0,0,0,0,0,0,0,0,0,0,0,0,0,0,0,0,0,0,0,0,0,0,0,0,0,0.0131,0.0131,0,0.0133,0.0133,0.0133,0.013,0.013,0.013,0.013,0.0138,0.0138,0.0139,0,0,0,0,0,0,0,0,0,0,0,0,0,0.0107,0.0107,0.0131,0.0131,0.0131,0.0133,0.0133,0.0133,0.0131,0.013,0.013,0.013,0.0138,0.0138,0.0139,0,0,0,0,0,0,0,0,0,0,0,0,0,0.0113,0.0107,0.0131,0.013,0.013,0.0133,0.0133,0.0133,0.0131,0.013,0.013,0.013,0.0138,0.0138,0.0139,0.0142,0,0,0.014,0.014,0,0,0,0,0,0,0,0,0.0113,0.0114,0.013,0.013,0.013,0.0132,0.0128,0.0137,0.0131,0.013,0.013,0.013,0.0137,0.0138,0.0137,0.0143,0.0143,0.014,0.014,0.014,0.014,0,0,0,0,0,0,0,0.0112,0.0114,0.0131,0.013,0.013,0.0124,0.0125,0.0129,0.0133,0.013,0.013,0.0131,0.0137,0.0137,0.0137,0.0143,0.014,0.014,0.014,0.0141,0.016,0.016,0,0,0,0,0,0,0.0115,0.0114,0.0131,0.0131,0.0122,0.0125,0.0126,0.0131,0.0133,0.0134,0.0131,0.0131,0.0136,0.0137,0.0138,0.0159,0.014,0.0141,0.0141,0.0159,0.016,0.016,0,0,0,0,0,0,0.0114,0.0116,0.0131,0.0123,0.0124,0.0126,0.0131,0.0131,0.0132,0.0134,0.0135,0.0133,0.0136,0.0137,0.0148,0.0158,0.0141,0.0141,0.0159,0.016,0.016,0.019,0,0,0,0,0,0,0.0114,0.0116,0.012,0.0123,0.0125,0.0141,0.0131,0.0131,0.0134,0.0134,0.0136,0.0136,0.0136,0.0148,0.0149,0.0158,0.0141,0.0159,0.0159,0.016,0.0189,0.0191,0.0194,0,0,0,0,0,0.0113,0.012,0.012,0.0122,0.013,0.0142,0.0143,0.0142,0.0134,0.0141,0.0141,0.0136,0.0152,0.0149,0.015,0.016,0.0158,0.0159,0.016,0.0187,0.0191,0.0194,0,0,0,0,0,0,0.0112,0.0121,0.0121,0.0131,0.0139,0.0142,0.0147,0.0144,0.0148,0.0148,0.0143,0.0145,0.0157,0.0153,0.015,0.0165,0.0153,0.0154,0.0173,0.0177,0.0179,0.018,0.0142,0,0,0,0,0,0.0113,0.0123,0.013,0.0139,0.0143,0.0144,0.0147,0.015,0.0154,0.0156,0.0157,0.0157,0.016,0.0164,0.0168,0.0179,0.0162,0.0184,0.0186,0.0188,0.0189,0.0167,0.0167,0.0162,0.0162,0.0162,0,0,0.0116,0.0122,0.0128,0.014,0.0144,0.0158,0.0146,0.0157,0.017,0.0156,0.0171,0.0168,0.0164,0.0178,0.0183,0.0177,0.0183,0.0189,0.0191,0.0191,0.0167,0.0168,0.0168,0.0163,0.0163,0.0162,0,0,0.0129,0.0132,0.0145,0.0154,0.0167,0.017,0.0174,0.0181,0.0185,0.0199,0.019,0.0191,0.0199,0.0199,0.0198,0.0215,0.0196,0.0216,0.0232,0.0211,0.0211,0.0211,0.0196,0.0195,0.0218,0.0218,0.0218,0,0.0131,0.0151,0.0151,0.0166,0.0178,0.0176,0.0196,0.02,0.0211,0.0217,0.0209,0.0211,0.0208,0.0217,0.0223,0.0221,0.0207,0.0223,0.0214,0.0214,0.0213,0.0198,0.0196,0.022,0.022,0.0219,0.0219,0,0.0156,0.0172,0.0181,0.0202,0.0213,0.0231,0.0239,0.025,0.025,0.0252,0.0259,0.025,0.025,0.0248,0.0242,0.024,0.0231,0.0219,0.0206,0.0215,0.0199,0.0196,0.0222,0.0221,0.0221,0.0221,0,0,0.016,0.0193,0.0196,0.0216,0.0235,0.0251,0.027,0.0289,0.0301,0.0299,0.0309,0.0304,0.0292,0.0289,0.0277,0.0257,0.0242,0.0239,0.0237,0.0226,0.0198,0.0201,0.0198,0.0227,0.0226,0.0226,0.0191,0,0.0182,0.0221,0.0229,0.027,0.0293,0.03,0.032,0.0335,0.0338,0.0346,0.0327,0.0332,0.031,0.0311,0.0287,0.0255,0.0235,0.0253,0.0191,0.0189,0.0191,0.0195,0.0225,0.0189,0.0188,0.0187,0.0187,0,0.0204,0.023,0.0273,0.0314,0.0323,0.0345,0.0377,0.0398,0.0403,0.0403,0.0395,0.0377,0.0358,0.0331,0.0274,0.0287,0.0247,0.0214,0.0211,0.02,0.0186,0.0176,0.0182,0.0182,0.0182,0.0183,0.0183,0,0.0216,0.0261,0.0299,0.0313,0.0355,0.0376,0.0399,0.0416,0.0441,0.044,0.0446,0.0414,0.0406,0.0344,0.0281,0.0277,0.021,0.0195,0.0159,0.0158,0.0153,0.0153,0.0148,0.0148,0.0148,0.0148,0.0149,0,0.0239,0.027,0.031,0.0333,0.0383,0.0401,0.0449,0.0463,0.0485,0.0511,0.048,0.0481,0.0407,0.0361,0.0292,0.0221,0.0218,0.0162,0.0149,0.0167,0.017,0.0151,0.0152,0.0147,0.0147,0.0148,0.0148,0,0.0248,0.0275,0.0322,0.037,0.0392,0.0428,0.0491,0.0521,0.0536,0.0566,0.0568,0.0538,0.048,0.0401,0.0306,0.0248,0.017,0.0144,0.0178,0.0167,0.013,0.0132,0.01,0.01,0.01,0.01,0.01,0,0.0257,0.0283,0.0346,0.038,0.0406,0.0464,0.0507,0.0547,0.0576,0.0597,0.0607,0.057,0.0535,0.0409,0.032,0.0195,0.0173,0.0131,0.012,0.0134,0.0124,0.0127,0.013,0.0099,0.0099,0.0099,0.0099,0,0.0271,0.0291,0.0328,0.0397,0.0449,0.0511,0.0569,0.0595,0.0636,0.0649,0.0639,0.0577,0.0517,0.0416,0.0326,0.023,0.0155,0.0128,0.0128,0.0117,0.0133,0.0124,0.0127,0.0099,0.0099,0.0099,0.0099,0,0.0277,0.03,0.0348,0.0411,0.0474,0.0532,0.0569,0.0608,0.0644,0.0661,0.0656,0.0589,0.0558,0.0434,0.0345,0.026,0.0232,0.0189,0.0185,0.0184,0.0216,0.0248,0.0239,0,0,0,0,0,0.0284,0.031,0.0361,0.0427,0.0487,0.0531,0.0598,0.0629,0.0665,0.0662,0.0663,0.0603,0.0486,0.0438,0.0354,0.0332,0.0211,0.0228,0.0158,0.0095,0.0096,0.0119,0,0,0,0,0,0,0.0287,0.033,0.0355,0.0428,0.0474,0.0547,0.0591,0.0621,0.0622,0.064,0.0583,0.0567,0.0457,0.0532,0.0346,0.0323,0.0262,0.0181,0.0179,0.0095,0.0095,0.0096,0.012,0,0,0,0,0]}]]